Precipitable_Water
0.39 0.33 0.28 0.32 0.40 0.43 0.34 0.29 0.32 0.38 0.44 0.42 0.34 0.38 0.55 0.67 0.78 0.76 0.71 0.69 0.75 0.75 0.86 0.90 0.90 0.80 0.81 0.87 0.86 0.87 0.90 0.93 0.98 0.88 0.87 0.84 0.83 0.84 0.85 0.89 0.98 1.08 1.15 1.16
0.39 0.33 0.34 0.40 0.41 0.36 0.31 0.26 0.28 0.35 0.42 0.35 0.29 0.36 0.55 0.56 0.56 0.61 0.66 0.65 0.72 0.74 0.79 0.79 0.76 0.76 0.76 0.81 0.83 0.83 0.84 0.85 0.86 0.83 0.79 0.80 0.83 0.86 0.87 0.94 0.97 1.17 1.21 1.23
0.36 0.40 0.47 0.38 0.38 0.31 0.28 0.23 0.34 0.36 0.41 0.37 0.34 0.33 0.41 0.49 0.58 0.57 0.67 0.69 0.75 0.73 0.72 0.76 0.73 0.77 0.84 0.82 0.82 0.79 0.76 0.75 0.80 0.87 0.84 0.83 0.86 0.87 0.87 0.90 0.96 1.12 1.16 1.14
0.40 0.44 0.45 0.39 0.34 0.34 0.29 0.33 0.35 0.36 0.34 0.28 0.43 0.30 0.44 0.46 0.45 0.48 0.52 0.64 0.60 0.69 0.72 0.72 0.74 0.72 0.75 0.77 0.82 0.84 0.85 0.82 0.86 0.94 0.97 0.87 0.76 0.71 0.83 0.87 0.97 1.05 1.15 1.14
0.37 0.40 0.40 0.36 0.32 0.37 0.36 0.42 0.42 0.35 0.31 0.32 0.37 0.39 0.42 0.41 0.40 0.42 0.51 0.53 0.55 0.56 0.67 0.71 0.69 0.72 0.75 0.79 0.80 0.84 0.90 0.91 0.92 0.92 0.95 0.95 0.82 0.81 0.81 0.90 0.96 1.10 1.22 1.20
0.40 0.48 0.42 0.38 0.37 0.40 0.41 0.36 0.37 0.37 0.33 0.26 0.34 0.37 0.39 0.39 0.41 0.37 0.47 0.56 0.59 0.60 0.66 0.77 0.83 0.83 0.83 0.88 0.88 0.85 0.85 0.88 0.96 1.03 1.02 0.98 0.96 0.90 0.84 0.91 0.97 1.09 1.20 1.23
0.40 0.41 0.43 0.39 0.34 0.37 0.37 0.32 0.25 0.25 0.26 0.25 0.40 0.36 0.39 0.44 0.45 0.45 0.40 0.53 0.61 0.66 0.67 0.71 0.79 0.83 0.86 0.87 0.89 0.91 0.87 0.87 0.94 1.02 1.07 1.02 1.05 1.05 0.99 0.96 0.98 1.06 1.16 1.16
0.36 0.30 0.37 0.40 0.35 0.33 0.33 0.31 0.25 0.25 0.32 0.36 0.44 0.28 0.31 0.43 0.46 0.42 0.41 0.42 0.53 0.65 0.70 0.70 0.73 0.84 0.87 0.87 0.89 0.93 0.93 0.92 0.97 1.01 1.07 1.15 1.11 1.13 1.12 1.07 1.06 1.07 1.09 1.08
0.35 0.31 0.39 0.41 0.38 0.36 0.40 0.35 0.34 0.41 0.46 0.42 0.35 0.34 0.33 0.39 0.37 0.36 0.40 0.46 0.48 0.51 0.60 0.72 0.74 0.79 0.89 0.89 0.90 0.93 0.94 0.96 1.00 1.00 1.05 1.05 1.09 1.13 1.23 1.24 1.14 1.15 1.21 1.19
0.37 0.33 0.37 0.39 0.41 0.34 0.36 0.45 0.31 0.37 0.33 0.27 0.24 0.25 0.32 0.36 0.36 0.40 0.35 0.40 0.46 0.56 0.60 0.60 0.76 0.83 0.85 0.92 0.94 0.98 1.01 1.00 1.04 1.04 1.04 1.05 1.11 1.17 1.19 1.25 1.21 1.29 1.30 1.23
0.41 0.39 0.34 0.39 0.34 0.31 0.30 0.36 0.41 0.37 0.33 0.27 0.23 0.31 0.48 0.42 0.41 0.35 0.38 0.40 0.44 0.48 0.52 0.56 0.70 0.85 0.91 0.96 1.01 1.04 1.07 1.08 1.10 1.11 1.13 1.11 1.17 1.22 1.28 1.31 1.28 1.19 1.25 1.23
0.40 0.39 0.35 0.36 0.39 0.39 0.36 0.30 0.40 0.31 0.33 0.33 0.33 0.35 0.48 0.46 0.41 0.40 0.40 0.44 0.46 0.47 0.51 0.57 0.57 0.63 0.86 0.98 1.02 1.15 1.16 1.14 1.18 1.19 1.26 1.29 1.36 1.38 1.25 1.16 1.17 1.20 1.17 1.19
0.39 0.36 0.33 0.39 0.41 0.40 0.28 0.38 0.37 0.36 0.35 0.31 0.32 0.32 0.42 0.43 0.42 0.42 0.40 0.41 0.46 0.48 0.50 0.57 0.58 0.56 0.58 0.78 0.97 1.11 1.23 1.22 1.23 1.24 1.28 1.28 1.28 1.20 1.09 1.07 1.09 1.11 1.08 1.05
0.47 0.38 0.36 0.30 0.37 0.35 0.31 0.32 0.43 0.41 0.31 0.33 0.32 0.34 0.42 0.42 0.44 0.43 0.43 0.45 0.46 0.50 0.49 0.51 0.60 0.62 0.64 0.65 0.74 0.94 1.04 1.08 1.08 1.10 1.10 1.05 1.02 1.04 0.99 1.00 1.03 1.05 1.03 1.02
0.47 0.37 0.38 0.36 0.39 0.37 0.35 0.31 0.29 0.29 0.35 0.33 0.35 0.30 0.33 0.38 0.40 0.43 0.49 0.50 0.51 0.51 0.49 0.46 0.56 0.73 0.76 0.78 0.78 0.81 0.86 0.90 0.93 0.95 0.94 0.91 0.94 0.97 1.02 1.05 1.04 1.04 1.02 0.97
0.45 0.41 0.39 0.36 0.36 0.39 0.38 0.35 0.33 0.31 0.30 0.33 0.35 0.34 0.39 0.39 0.37 0.41 0.45 0.46 0.49 0.55 0.56 0.53 0.54 0.78 0.88 0.84 0.77 0.83 0.87 0.90 0.93 0.91 0.90 0.95 0.97 1.03 1.01 0.99 0.99 0.95 0.90 0.85
0.39 0.39 0.36 0.31 0.35 0.35 0.30 0.34 0.32 0.33 0.34 0.31 0.27 0.31 0.34 0.33 0.38 0.40 0.42 0.46 0.45 0.51 0.52 0.56 0.64 0.88 0.88 0.83 0.80 0.79 0.82 0.88 0.87 0.89 0.93 0.96 0.98 0.95 0.93 0.93 0.84 0.75 0.69 0.67
0.39 0.42 0.38 0.35 0.34 0.24 0.34 0.37 0.37 0.33 0.33 0.34 0.33 0.34 0.36 0.36 0.39 0.45 0.48 0.50 0.52 0.52 0.51 0.57 0.73 0.81 0.81 0.82 0.77 0.77 0.81 0.86 0.87 0.87 0.88 0.88 0.82 0.74 0.71 0.69 0.67 0.64 0.63 0.63
0.51 0.48 0.39 0.34 0.34 0.34 0.35 0.38 0.36 0.33 0.31 0.36 0.35 0.35 0.37 0.38 0.42 0.45 0.49 0.50 0.52 0.50 0.57 0.60 0.65 0.71 0.74 0.71 0.76 0.77 0.77 0.76 0.73 0.68 0.66 0.66 0.66 0.63 0.63 0.59 0.56 0.57 0.58 0.59
0.52 0.56 0.46 0.36 0.30 0.29 0.37 0.41 0.44 0.41 0.30 0.37 0.37 0.39 0.37 0.41 0.37 0.42 0.52 0.51 0.50 0.54 0.56 0.60 0.64 0.66 0.66 0.69 0.69 0.64 0.62 0.62 0.61 0.63 0.64 0.65 0.65 0.59 0.54 0.55 0.56 0.58 0.57 0.56
0.45 0.47 0.40 0.39 0.35 0.38 0.43 0.42 0.44 0.30 0.31 0.39 0.44 0.45 0.42 0.42 0.45 0.51 0.51 0.50 0.55 0.56 0.57 0.61 0.62 0.61 0.62 0.63 0.63 0.59 0.60 0.59 0.62 0.64 0.64 0.60 0.57 0.56 0.57 0.57 0.56 0.55 0.49 0.47
0.44 0.41 0.39 0.41 0.37 0.32 0.50 0.43 0.35 0.37 0.42 0.46 0.45 0.47 0.46 0.50 0.50 0.48 0.49 0.50 0.53 0.54 0.58 0.62 0.60 0.60 0.62 0.62 0.61 0.59 0.59 0.63 0.65 0.63 0.56 0.54 0.53 0.52 0.51 0.48 0.46 0.43 0.43 0.41
0.36 0.47 0.43 0.43 0.43 0.53 0.53 0.51 0.53 0.51 0.51 0.52 0.59 0.58 0.56 0.55 0.52 0.53 0.53 0.54 0.56 0.57 0.59 0.61 0.58 0.59 0.62 0.63 0.63 0.58 0.62 0.64 0.62 0.55 0.50 0.48 0.47 0.47 0.47 0.46 0.42 0.39 0.37 0.34
0.47 0.58 0.55 0.56 0.52 0.58 0.62 0.62 0.57 0.58 0.55 0.57 0.61 0.62 0.60 0.57 0.58 0.58 0.58 0.58 0.60 0.63 0.63 0.63 0.62 0.60 0.60 0.62 0.62 0.62 0.61 0.61 0.57 0.51 0.49 0.47 0.46 0.44 0.41 0.37 0.34 0.35 0.33 0.31
0.31 0.49 0.51 0.50 0.59 0.65 0.66 0.63 0.64 0.63 0.63 0.61 0.63 0.61 0.61 0.65 0.62 0.62 0.60 0.60 0.62 0.64 0.65 0.64 0.63 0.62 0.61 0.60 0.58 0.59 0.59 0.58 0.53 0.51 0.49 0.47 0.44 0.41 0.37 0.36 0.33 0.33 0.32 0.29
0.36 0.31 0.30 0.33 0.39 0.42 0.45 0.54 0.60 0.59 0.57 0.65 0.62 0.64 0.65 0.69 0.67 0.65 0.62 0.63 0.63 0.64 0.66 0.65 0.65 0.62 0.58 0.55 0.54 0.56 0.58 0.55 0.50 0.48 0.48 0.47 0.44 0.40 0.36 0.34 0.32 0.33 0.33 0.31
Wind_Speed
18 16 17 16 16 19 17 14 13 5 9 8 12 11 8 10 12 8 6 6 7 5 7 8 10 10 13 14 16 17 17 17 17 17 15 14 14 14 15 15 15 16 16 16
19 20 18 17 17 12 14 12 13 7 5 7 11 9 7 9 8 8 7 8 8 8 9 9 10 11 14 14 15 16 16 15 15 14 14 13 13 14 14 14 15 16 16 16
23 20 17 19 14 12 12 12 9 15 10 14 12 12 10 7 7 7 7 9 9 10 10 10 11 11 13 14 15 15 15 15 15 14 13 13 13 13 14 15 15 16 16 17
25 22 16 17 13 13 12 10 11 12 10 9 4 14 12 14 11 8 7 8 8 10 11 11 12 13 14 14 15 15 15 15 15 14 14 14 14 13 13 14 15 16 17 18
24 23 22 17 17 15 14 6 12 11 13 14 12 8 10 10 14 11 9 9 9 10 12 13 13 13 14 15 16 16 15 16 15 15 15 15 14 15 15 16 16 16 16 17
26 22 23 21 17 15 12 12 12 13 12 12 12 9 10 9 9 11 13 12 11 13 14 14 14 14 14 16 16 17 17 17 16 16 16 16 16 16 16 17 17 17 18 19
25 28 22 20 19 18 13 12 10 9 10 9 9 9 11 6 12 8 6 13 12 14 15 16 16 16 16 17 17 17 19 18 18 17 17 17 17 17 17 18 19 18 19 20
24 24 26 20 20 17 15 14 11 8 8 6 7 7 5 7 8 4 7 8 9 14 15 16 17 18 18 19 19 19 20 20 20 20 19 18 19 19 19 20 19 21 22 22
26 27 24 22 20 20 16 15 16 7 11 9 4 10 7 8 6 6 6 7 10 14 15 19 19 19 20 20 21 21 21 22 22 22 22 22 21 22 24 24 24 24 24 25
24 22 26 24 21 21 19 13 14 11 6 9 9 9 7 9 7 5 5 3 4 9 11 14 19 20 20 21 21 22 23 22 23 23 24 24 24 24 25 25 25 24 24 26
31 22 22 24 24 21 17 16 16 16 13 7 9 5 9 6 6 7 4 5 5 4 7 9 12 16 21 21 22 23 24 24 24 25 26 26 25 26 27 23 24 25 26 27
35 20 21 25 23 22 21 19 18 14 12 11 10 11 6 8 10 11 10 9 8 7 7 9 10 12 14 21 20 21 22 24 26 27 27 28 24 25 22 24 25 25 25 24
34 29 21 23 24 23 24 20 19 19 17 16 13 12 8 10 9 11 13 13 12 10 10 9 10 11 12 15 16 18 20 20 23 23 23 23 23 22 22 22 23 23 24 24
31 30 27 24 23 21 21 22 21 20 16 15 16 16 17 10 14 15 15 16 14 13 12 12 11 11 11 12 15 16 16 18 19 18 18 19 20 20 20 21 22 22 23 24
25 32 29 27 24 24 23 22 23 22 19 18 16 19 18 15 12 12 10 9 13 14 13 13 14 13 12 11 11 14 16 16 17 18 18 18 19 19 20 20 21 22 23 23
26 27 32 26 27 24 23 24 24 22 22 20 21 20 18 18 16 15 13 12 15 16 16 17 16 16 15 14 15 16 17 17 18 18 19 20 20 19 20 21 21 21 22 22
26 27 28 30 28 25 27 25 21 20 21 19 20 18 18 18 17 16 14 14 14 14 16 18 18 16 17 17 17 19 20 19 19 19 19 19 20 20 21 20 20 21 21 21
22 26 27 23 22 33 24 24 24 23 22 21 21 19 18 18 17 15 13 12 13 14 15 15 16 16 17 18 18 18 18 18 19 19 19 19 19 18 19 20 21 21 20 21
22 22 24 24 26 25 29 22 22 22 23 22 23 22 19 19 15 14 15 16 15 15 15 15 16 17 18 17 16 15 15 15 16 16 17 18 18 19 19 20 20 20 21 22
27 26 26 22 26 26 23 23 18 20 22 20 20 19 18 15 15 15 14 14 14 14 15 15 15 16 16 15 14 14 14 15 15 16 16 17 18 18 19 19 20 21 22 23
24 25 28 25 22 23 22 25 23 25 17 17 18 18 19 17 16 14 15 14 15 15 15 16 16 16 16 16 16 16 16 16 16 16 17 17 18 19 20 20 21 22 23 23
23 23 24 23 23 26 16 20 27 21 19 19 18 17 17 15 14 15 16 16 17 17 17 17 17 17 17 17 17 17 17 17 17 18 18 18 19 20 21 22 23 23 24 25
23 24 24 23 23 22 21 21 18 18 18 19 16 17 17 17 17 17 17 18 18 18 18 19 18 18 19 19 19 19 19 19 19 19 19 20 20 21 22 23 24 25 26 27
25 21 19 14 27 21 18 20 20 22 20 19 21 19 20 19 19 19 19 19 19 19 19 19 19 19 20 20 20 20 20 20 20 20 20 21 22 23 24 25 26 27 28 30
27 25 19 21 22 17 20 20 19 19 21 22 22 21 23 22 21 21 20 20 21 21 20 21 21 21 20 20 20 21 21 21 21 21 22 23 24 25 25 26 28 29 30 31
24 24 25 23 21 19 19 18 20 23 24 27 26 26 24 23 23 22 22 22 22 22 21 21 21 21 21 21 22 22 23 23 23 23 23 24 26 26 28 28 29 30 31 32
Wind_Direction
234 239 244 246 250 269 287 288 282 274 279 274 277 272 233 258 229 195 220 215 200 201 171 168 166 156 153 154 152 155 156 157 158 165 170 177 184 191 199 205 211 215 221 227
234 237 244 248 262 279 283 266 264 267 253 273 280 280 188 228 232 225 221 213 194 195 179 177 177 173 173 171 170 169 168 171 174 178 185 191 196 203 209 214 222 223 230 236
232 234 238 247 255 262 261 258 265 272 266 271 264 266 290 249 213 240 214 208 198 201 191 184 180 182 179 180 183 184 186 187 188 191 195 201 207 213 218 225 230 233 238 243
232 236 245 236 244 243 262 247 271 258 262 266 285 286 254 252 221 211 214 198 198 198 194 189 186 187 190 189 189 192 194 196 200 206 209 213 219 224 229 233 237 243 245 250
231 229 233 238 241 244 259 256 255 268 265 273 258 267 261 218 223 219 216 214 208 209 201 193 193 194 197 199 200 204 206 208 211 216 222 226 230 236 239 242 243 245 247 254
231 231 232 235 237 243 260 263 253 260 259 259 264 252 237 260 255 232 218 215 220 216 208 207 204 204 206 208 210 213 216 219 222 224 227 234 236 239 242 243 247 248 254 262
230 234 228 229 233 237 236 247 251 245 245 248 264 264 256 214 207 244 208 216 224 221 216 215 214 216 217 216 217 218 221 225 227 230 233 237 242 243 245 248 249 250 255 261
225 225 223 221 230 221 226 234 235 226 241 279 289 239 200 204 192 226 255 246 235 223 224 224 226 223 223 223 223 225 227 231 232 234 239 242 246 250 251 253 256 255 260 267
221 228 221 221 221 228 224 230 235 213 247 239 213 244 226 208 232 234 251 250 242 238 237 231 232 232 229 229 228 229 231 235 238 240 243 245 252 251 254 256 260 261 263 275
229 223 224 214 216 225 230 238 227 220 223 239 228 249 261 218 224 222 230 222 254 247 247 241 233 232 232 232 233 233 235 238 241 243 245 248 252 254 258 258 261 265 270 275
223 231 221 213 213 216 220 227 231 236 239 248 250 247 225 260 218 218 235 252 254 258 239 246 246 241 233 237 238 236 237 241 245 247 248 249 251 255 257 258 267 272 274 275
219 222 221 217 212 222 228 221 229 225 229 232 245 243 209 280 242 240 248 252 256 253 252 245 246 248 244 236 238 237 239 243 249 251 251 249 250 260 268 271 272 274 276 277
213 221 220 215 218 219 223 226 229 233 236 239 225 243 243 259 257 257 261 251 246 251 256 250 248 250 246 244 241 243 245 246 251 251 254 256 260 266 269 271 272 273 274 278
219 220 221 217 218 217 223 224 223 230 233 244 236 241 249 251 266 258 255 251 248 247 251 255 253 249 250 247 244 245 251 257 257 257 254 257 261 266 269 271 272 273 276 278
215 218 222 225 227 212 222 224 231 235 232 230 240 250 247 256 254 263 258 253 254 247 254 258 258 249 247 248 251 252 254 255 255 255 256 260 265 269 271 272 274 276 278 280
220 220 221 226 226 234 231 229 223 230 237 243 246 246 250 259 260 256 257 254 252 252 260 263 260 249 249 253 257 260 259 257 256 257 259 263 266 267 272 274 276 277 279 281
219 218 218 226 227 235 236 230 234 234 237 241 246 252 254 254 256 260 255 256 251 251 260 261 255 247 255 257 261 265 260 256 255 255 257 260 264 269 271 271 275 278 280 281
218 219 216 222 221 233 237 234 238 244 249 250 251 254 254 255 255 258 251 247 255 258 263 258 252 252 256 262 268 261 254 252 253 256 259 261 264 266 269 273 276 279 280 282
224 225 218 219 226 237 232 229 231 236 243 244 249 254 254 250 246 251 255 262 260 257 259 256 252 253 258 261 256 251 248 248 250 254 257 262 266 269 272 276 277 279 281 284
228 225 226 219 225 231 229 225 230 240 249 245 250 256 253 238 245 257 251 259 255 253 253 252 252 254 253 252 249 247 248 250 254 257 262 265 268 271 274 275 278 281 283 285
224 222 225 227 231 236 232 230 236 240 244 246 249 250 245 245 252 250 253 255 253 253 253 254 253 251 250 248 248 249 252 255 257 260 264 267 270 273 275 277 280 282 286 288
214 221 224 227 232 237 236 231 227 237 232 248 256 250 252 244 249 254 254 252 251 251 252 253 252 251 250 249 249 251 255 257 260 264 266 268 271 275 278 281 283 285 287 289
218 226 227 225 231 238 233 236 233 236 244 249 260 251 254 246 252 257 256 252 251 252 253 253 251 251 251 251 252 255 256 258 261 264 267 271 274 278 281 283 284 286 289 291
219 221 234 251 235 235 237 236 238 240 244 251 254 255 259 250 255 256 255 252 253 254 253 252 251 250 251 251 253 256 257 260 262 265 269 273 277 280 282 284 286 288 291 293
228 223 224 226 238 240 246 245 248 247 248 249 254 259 263 253 255 255 254 254 255 254 255 252 252 252 252 253 256 258 260 261 264 268 272 277 279 282 284 287 289 290 292 293
228 232 232 238 246 247 251 253 252 254 258 258 253 257 261 252 255 255 256 256 256 254 254 253 252 253 253 256 258 260 261 263 266 270 275 279 282 285 286 286 289 292 292 294